This is the latest recevied weather packets stored in our database for station/object OE6JUE. If no packets are shown the sender has not sent any weather packets the latest 10 day(s).
| Time | Temp. | Humidity | Pressure | Rain* | Wind** | Luminosity | Snow |
|---|---|---|---|---|---|---|---|
| 1788115718 | 21.11° C | 65% | 1017.9 hPa | 0 mm | - | - | - |
| 1788115418 | 21.11° C | 65% | 1017.8 hPa | 0 mm | - | - | - |
| 1788115119 | 21.11° C | 65% | 1017.8 hPa | 0 mm | - | - | - |
| 1788114818 | 21.11° C | 63% | 1017.7 hPa | 0 mm | - | - | - |
| 1788114518 | 21.67° C | 62% | 1017.7 hPa | 0 mm | - | - | - |
| 1788114218 | 22.22° C | 61% | 1017.5 hPa | 0 mm | - | - | - |
| 1788113918 | 22.78° C | 57% | 1017.6 hPa | 0 mm | - | - | - |
| 1788113618 | 23.33° C | 55% | 1017.4 hPa | 0 mm | - | - | - |
| 1788113318 | 23.33° C | 55% | 1017.4 hPa | 0 mm | - | - | - |
| 1788113018 | 23.33° C | 54% | 1017.4 hPa | 0 mm | - | - | - |
| 1788112718 | 23.89° C | 53% | 1017.2 hPa | 0 mm | - | - | - |
| 1788112418 | 23.89° C | 52% | 1017.2 hPa | 0 mm | - | - | - |
| 1788112118 | 23.89° C | 52% | 1017.2 hPa | 0 mm | - | - | - |
| 1788111818 | 25° C | 50% | 1017 hPa | 0 mm | - | - | - |
| 1788111518 | 25° C | 50% | 1017 hPa | 0 mm | - | - | - |
| 1788111218 | 25.56° C | 49% | 1017.1 hPa | 0 mm | - | - | - |
| 1788110918 | 26.11° C | 47% | 1017.2 hPa | 0 mm | - | - | - |
| 1788110618 | 26.11° C | 46% | 1017.1 hPa | 0 mm | - | - | - |
| 1788110318 | 26.67° C | 45% | 1017.1 hPa | 0 mm | - | - | - |
| 1788110018 | 26.67° C | 44% | 1017 hPa | 0 mm | - | - | - |
| 1788109718 | 27.22° C | 44% | 1017 hPa | 0 mm | - | - | - |
| 1788109418 | 27.22° C | 43% | 1017 hPa | 0 mm | - | - | - |
| 1788109118 | 27.22° C | 43% | 1016.9 hPa | 0 mm | - | - | - |
| 1788108818 | 27.22° C | 42% | 1017 hPa | 0 mm | - | - | - |
| 1788108518 | 27.78° C | 38% | 1016.9 hPa | 0 mm | - | - | - |
* Rain latest hour (hover to see other rain measurements)
** Current wind speed in m/s (hover to see current wind gust speed)